Tracking 31027 objects as of 19-Jul-2025
HD Live streaming from Space Station
objects crossing your sky now

PEGASUS DEB

Track PEGASUS DEB now!
10-day predictions


NORAD ID: 24165
Int'l Code: 1994-029HQ
Perigee: 479.2 km
Apogee: 622.8 km
Inclination: 82.2 °
Period: 95.5 minutes
Semi major axis: 6922 km
RCS: 0.0387 m2 (small)
Launch date: May 19, 1994
Source: United States (US)
Launch site: AIR FORCE WESTERN TEST RANGE (AFWTR)

Note: This is SATELLITE DEBRIS
Your satellite tracking list
STARLINK-1749
Track 1 satellite(s)




NASA's NSSDC Master Catalog

Two Line Element Set (TLE):
1 24165U 94029HQ  25199.86677020  .00053555  00000-0  30998-2 0  9998
2 24165  82.1589 118.2277 0103727  44.8583 316.0968 15.07483898510768
Source of the keplerian elements: AFSPC